| time (UTC) | temp F | wind direction | speed MPH | gust MPH | rain 1hr in | rain 24hr in | rain mn in | humidity % | barometer mb |
| 20260504010042 | 51 | 195 | 2.0 | 5.0 | 0.00 | 0.00 | 0.00 | 49 | 1011.5 |
| 20260504004535 | 51 | 213 | 3.0 | 9.0 | 0.00 | 0.00 | 0.00 | 48 | 1011.4 |
| 20260504003045 | 52 | 188 | 2.0 | 7.0 | 0.00 | 0.00 | 0.00 | 47 | 1011.3 |
| 20260504001535 | 53 | 196 | 3.0 | 10.0 | 0.00 | 0.00 | 0.00 | 45 | 1011.3 |
| 20260504000037 | 53 | 207 | 5.0 | 10.0 | 0.00 | 0.00 | 0.00 | 45 | 1011.3 |
| 20260503234546 | 53 | 184 | 5.0 | 10.0 | 0.00 | 0.00 | 0.00 | 45 | 1011.2 |
| 20260503233035 | 53 | 248 | 4.0 | 11.0 | 0.00 | 0.00 | 0.00 | 45 | 1011.3 |
| 20260503231540 | 54 | 212 | 4.0 | 11.0 | 0.00 | 0.00 | 0.00 | 44 | 1011.4 |
| 20260503230045 | 54 | 204 | 6.0 | 10.0 | 0.00 | 0.00 | 0.00 | 44 | 1011.5 |
| 20260503224536 | 54 | 196 | 7.0 | 11.0 | 0.00 | 0.00 | 0.00 | 42 | 1011.3 |
| 20260503223039 | 55 | 192 | 4.0 | 8.0 | 0.00 | 0.00 | 0.00 | 43 | 1011.4 |
| 20260503221537 | 55 | 186 | 4.0 | 10.0 | 0.00 | 0.00 | 0.00 | 41 | 1011.2 |
| 20260503220046 | 55 | 245 | 3.0 | 11.0 | 0.00 | 0.00 | 0.00 | 41 | 1011.2 |
| 20260503214541 | 56 | 213 | 3.0 | 13.0 | 0.00 | 0.00 | 0.00 | 41 | 1011.2 |
| 20260503213038 | 57 | 192 | 6.0 | 13.0 | 0.00 | 0.00 | 0.00 | 40 | 1011.1 |
| 20260503211537 | 56 | 197 | 3.0 | 10.0 | 0.00 | 0.00 | 0.00 | 41 | 1011.1 |
| 20260503210038 | 55 | 229 | 7.0 | 13.0 | 0.00 | 0.00 | 0.00 | 41 | 1011.2 |
| 20260503204537 | 56 | 168 | 7.0 | 13.0 | 0.00 | 0.00 | 0.00 | 40 | 1011.2 |
| 20260503203038 | 54 | 216 | 3.0 | 17.0 | 0.00 | 0.00 | 0.00 | 42 | 1011.3 |
| 20260503201537 | 54 | 167 | 4.0 | 18.0 | 0.00 | 0.00 | 0.00 | 41 | 1011.5 |
| 20260503200042 | 54 | 198 | 2.0 | 10.0 | 0.00 | 0.00 | 0.00 | 44 | 1011.7 |
| 20260503194539 | 54 | 213 | 5.0 | 14.0 | 0.00 | 0.00 | 0.00 | 40 | 1012.2 |
| 20260503193048 | 54 | 221 | 6.0 | 13.0 | 0.00 | 0.00 | 0.00 | 42 | 1012.3 |
| 20260503191539 | 54 | 273 | 4.0 | 12.0 | 0.00 | 0.00 | 0.00 | 42 | 1012.4 |
| 20260503190036 | 55 | 207 | 5.0 | 12.0 | 0.00 | 0.00 | 0.00 | 42 | 1012.6 |
| 20260503184544 | 53 | 271 | 6.0 | 16.0 | 0.00 | 0.00 | 0.00 | 43 | 1012.8 |
| 20260503183053 | 53 | 225 | 6.0 | 14.0 | 0.00 | 0.00 | 0.00 | 44 | 1013.0 |
| 20260503181539 | 53 | 212 | 7.0 | 14.0 | 0.00 | 0.00 | 0.00 | 42 | 1013.0 |
| 20260503180038 | 53 | 202 | 8.0 | 15.0 | 0.00 | 0.00 | 0.00 | 42 | 1013.1 |
| 20260503174537 | 52 | 242 | 7.0 | 15.0 | 0.00 | 0.00 | 0.00 | 45 | 1013.1 |
| 20260503173037 | 53 | 223 | 7.0 | 16.0 | 0.00 | 0.00 | 0.00 | 41 | 1013.1 |
| 20260503171539 | 52 | 230 | 6.0 | 16.0 | 0.00 | 0.00 | 0.00 | 48 | 1013.4 |
| 20260503081545 | 29 | 0 | 0.0 | 2.0 | 0.00 | 0.01 | 0.00 | 89 | 1013.5 |
| 20260503071535 | 30 | 0 | 0.0 | 2.0 | 0.00 | 0.01 | 0.00 | 86 | 1013.6 |
| 20260503054543 | 30 | 0 | 0.0 | 0.0 | 0.00 | 0.01 | 0.00 | 87 | 1013.9 |
| 20260503053034 | 30 | 0 | 0.0 | 0.0 | 0.00 | 0.01 | 0.00 | 87 | 1014.0 |
| 20260503051537 | 30 | 0 | 0.0 | 0.0 | 0.00 | 0.01 | 0.00 | 85 | 1014.0 |
| 20260503050039 | 31 | 0 | 0.0 | 0.0 | 0.00 | 0.01 | 0.00 | 83 | 1014.1 |
| 20260503044533 | 32 | 0 | 0.0 | 0.0 | 0.00 | 0.01 | 0.00 | 80 | 1014.2 |
| 20260503043034 | 33 | 0 | 0.0 | 2.0 | 0.00 | 0.01 | 0.00 | 78 | 1014.2 |
| 20260503041535 | 34 | 0 | 0.0 | 1.0 | 0.00 | 0.01 | 0.00 | 77 | 1014.3 |
| 20260503040045 | 34 | 0 | 0.0 | 2.0 | 0.00 | 0.01 | 0.00 | 77 | 1014.3 |
| 20260503034539 | 34 | 0 | 0.0 | 2.0 | 0.00 | 0.01 | 0.01 | 76 | 1014.3 |
| 20260503033042 | 35 | 0 | 0.0 | 0.0 | 0.00 | 0.01 | 0.01 | 75 | 1014.4 |
| 20260503031546 | 35 | 0 | 0.0 | 2.0 | 0.00 | 0.01 | 0.01 | 75 | 1014.4 |
| 20260503030040 | 35 | 0 | 0.0 | 2.0 | 0.00 | 0.01 | 0.01 | 74 | 1014.5 |
| 20260503024542 | 35 | 0 | 0.0 | 2.0 | 0.00 | 0.01 | 0.01 | 73 | 1014.4 |
| 20260503023036 | 36 | 261 | 0.0 | 2.0 | 0.00 | 0.01 | 0.01 | 71 | 1014.6 |
| 20260503021535 | 36 | 261 | 1.0 | 3.0 | 0.00 | 0.01 | 0.01 | 70 | 1014.6 |
| 20260503020035 | 36 | 0 | 0.0 | 2.0 | 0.00 | 0.01 | 0.01 | 69 | 1014.5 |
| 20260503014541 | 37 | 302 | 1.0 | 3.0 | 0.00 | 0.01 | 0.01 | 68 | 1014.4 |
| 20260503013039 | 37 | 255 | 1.0 | 4.0 | 0.00 | 0.01 | 0.01 | 67 | 1014.5 |
| 20260503011541 | 37 | 0 | 0.0 | 3.0 | 0.00 | 0.01 | 0.01 | 68 | 1014.4 |